| time (UTC) | temp F | wind direction | speed knots | gust knots | rain 1hr in | rain 24hr in | rain mn in | humidity % | barometer mb |
| 20260502195056 | 55 | 169 | 0.9 | 2.6 | 0.00 | 0.00 | 0.00 | 60 | 1012.0 |
| 20260502194557 | 55 | 104 | 0.9 | 2.6 | 0.00 | 0.00 | 0.00 | 60 | 1012.1 |
| 20260502194057 | 55 | 169 | 1.7 | 5.2 | 0.00 | 0.00 | 0.00 | 58 | 1012.3 |
| 20260502193558 | 55 | 289 | 1.7 | 5.2 | 0.00 | 0.00 | 0.00 | 57 | 1012.3 |
| 20260502193057 | 56 | 336 | 0.9 | 3.5 | 0.00 | 0.00 | 0.00 | 58 | 1012.3 |
| 20260502192559 | 56 | 146 | 1.7 | 4.3 | 0.00 | 0.00 | 0.00 | 58 | 1012.2 |
| 20260502192056 | 56 | 132 | 0.9 | 4.3 | 0.00 | 0.00 | 0.00 | 57 | 1012.2 |
| 20260502191611 | 56 | 329 | 0.9 | 3.5 | 0.00 | 0.00 | 0.00 | 57 | 1012.2 |
| 20260502191056 | 56 | 98 | 0.9 | 4.3 | 0.00 | 0.00 | 0.00 | 57 | 1012.1 |
| 20260502190556 | 56 | 119 | 1.7 | 4.3 | 0.00 | 0.00 | 0.00 | 59 | 1012.1 |
| 20260502190106 | 56 | 69 | 1.7 | 3.5 | 0.00 | 0.00 | 0.00 | 57 | 1012.3 |
| 20260502185554 | 56 | 79 | 1.7 | 3.5 | 0.00 | 0.00 | 0.00 | 57 | 1012.2 |
| 20260502185054 | 56 | 107 | 0.9 | 3.5 | 0.00 | 0.00 | 0.00 | 57 | 1012.2 |
| 20260502184554 | 56 | 320 | 1.7 | 3.5 | 0.00 | 0.00 | 0.00 | 57 | 1012.3 |
| 20260502184054 | 56 | 32 | 0.9 | 3.5 | 0.00 | 0.00 | 0.00 | 59 | 1012.4 |
| 20260502183554 | 56 | 111 | 0.9 | 4.3 | 0.00 | 0.00 | 0.00 | 56 | 1012.5 |
| 20260502183059 | 56 | 46 | 1.7 | 4.3 | 0.00 | 0.00 | 0.00 | 58 | 1012.5 |
| 20260502182558 | 56 | 161 | 1.7 | 3.5 | 0.00 | 0.00 | 0.00 | 57 | 1012.7 |
| 20260502182054 | 56 | 30 | 0.9 | 3.5 | 0.00 | 0.00 | 0.00 | 58 | 1012.7 |
| 20260502181558 | 56 | 97 | 1.7 | 4.3 | 0.00 | 0.00 | 0.00 | 59 | 1012.7 |
| 20260502181055 | 55 | 13 | 2.6 | 4.3 | 0.00 | 0.00 | 0.00 | 59 | 1012.6 |
| 20260502180555 | 55 | 37 | 1.7 | 5.2 | 0.00 | 0.00 | 0.00 | 57 | 1012.7 |
| 20260502180114 | 55 | 82 | 1.7 | 6.1 | 0.00 | 0.00 | 0.00 | 60 | 1012.7 |
| 20260502164053 | 56 | 49 | 1.7 | 7.0 | 0.00 | 0.00 | 0.00 | 62 | 1013.2 |
| 20260502163558 | 56 | 30 | 2.6 | 7.0 | 0.00 | 0.00 | 0.00 | 59 | 1013.3 |
| 20260502163108 | 56 | 25 | 2.6 | 6.1 | 0.00 | 0.00 | 0.00 | 61 | 1013.4 |
| 20260502162552 | 56 | 115 | 0.9 | 7.0 | 0.00 | 0.00 | 0.00 | 62 | 1013.8 |
| 20260502162055 | 56 | 74 | 3.5 | 7.0 | 0.00 | 0.00 | 0.00 | 61 | 1014.0 |
| 20260502161554 | 56 | 88 | 2.6 | 4.3 | 0.00 | 0.00 | 0.00 | 62 | 1014.2 |
| 20260502161051 | 56 | 9 | 0.9 | 3.5 | 0.00 | 0.00 | 0.00 | 66 | 1014.3 |
| 20260502160552 | 56 | 59 | 0.9 | 3.5 | 0.00 | 0.00 | 0.00 | 63 | 1014.4 |
| 20260502152052 | 55 | 44 | 3.5 | 8.7 | 0.00 | 0.00 | 0.00 | 61 | 1013.7 |
| 20260502151558 | 55 | 43 | 2.6 | 8.7 | 0.00 | 0.00 | 0.00 | 63 | 1013.5 |
| 20260502151051 | 54 | 352 | 1.7 | 7.0 | 0.00 | 0.00 | 0.00 | 62 | 1013.8 |
| 20260502150551 | 55 | 76 | 1.7 | 7.0 | 0.00 | 0.00 | 0.00 | 63 | 1013.8 |
| 20260502130551 | 53 | 105 | 1.7 | 4.3 | 0.00 | 0.00 | 0.00 | 68 | 1013.1 |
| 20260502130107 | 53 | 85 | 1.7 | 3.5 | 0.00 | 0.00 | 0.00 | 69 | 1013.2 |
| 20260502123553 | 53 | 93 | 1.7 | 4.3 | 0.00 | 0.00 | 0.00 | 69 | 1013.2 |
| 20260502123102 | 53 | 94 | 1.7 | 4.3 | 0.00 | 0.00 | 0.00 | 69 | 1013.4 |
| 20260502122554 | 53 | 57 | 0.9 | 5.2 | 0.00 | 0.00 | 0.00 | 70 | 1013.3 |
| 20260502122054 | 52 | 276 | 1.7 | 5.2 | 0.00 | 0.00 | 0.00 | 71 | 1013.3 |
| 20260502121559 | 52 | 56 | 0.9 | 2.6 | 0.00 | 0.00 | 0.00 | 74 | 1013.3 |
| 20260502121054 | 52 | 360 | 0.9 | 3.5 | 0.00 | 0.00 | 0.00 | 74 | 1013.0 |
| 20260502120552 | 52 | 11 | 0.9 | 3.5 | 0.00 | 0.00 | 0.00 | 73 | 1013.1 |
| 20260502115556 | 52 | 30 | 0.9 | 2.6 | 0.00 | 0.00 | 0.00 | 75 | 1013.1 |
| 20260502115052 | 52 | 0 | 0.9 | 2.6 | 0.00 | 0.00 | 0.00 | 76 | 1013.1 |
| 20260502114556 | 52 | 54 | 0.0 | 3.5 | 0.00 | 0.00 | 0.00 | 77 | 1013.0 |
| 20260502114052 | 52 | 61 | 0.9 | 3.5 | 0.00 | 0.00 | 0.00 | 75 | 1013.0 |
| 20260502113559 | 52 | 109 | 0.9 | 2.6 | 0.00 | 0.00 | 0.00 | 77 | 1012.9 |
| 20260502113057 | 52 | 130 | 0.9 | 2.6 | 0.00 | 0.00 | 0.00 | 78 | 1013.1 |
| 20260502112551 | 52 | 0 | 0.0 | 2.6 | 0.00 | 0.00 | 0.00 | 78 | 1013.1 |
| 20260502112054 | 51 | 104 | 0.9 | 2.6 | 0.00 | 0.00 | 0.00 | 79 | 1012.9 |
| 20260502111554 | 51 | 169 | 0.0 | 1.7 | 0.00 | 0.00 | 0.00 | 79 | 1012.9 |
| 20260502111056 | 51 | 27 | 0.9 | 1.7 | 0.00 | 0.00 | 0.00 | 80 | 1012.8 |
| 20260502110553 | 51 | 91 | 0.0 | 1.7 | 0.00 | 0.00 | 0.00 | 80 | 1012.9 |
| 20260502110053 | 51 | 289 | 0.0 | 1.7 | 0.00 | 0.00 | 0.00 | 82 | 1013.1 |
| 20260502105553 | 51 | 244 | 0.0 | 2.6 | 0.00 | 0.00 | 0.00 | 83 | 1013.1 |
| 20260502105055 | 51 | 0 | 0.0 | 2.6 | 0.00 | 0.00 | 0.00 | 82 | 1013.2 |
| 20260502104555 | 51 | 69 | 0.9 | 0.9 | 0.00 | 0.00 | 0.00 | 80 | 1013.1 |
| 20260502104052 | 50 | 88 | 0.0 | 0.0 | 0.00 | 0.00 | 0.00 | 84 | 1013.2 |
| 20260502103554 | 50 | 0 | 0.0 | 0.9 | 0.00 | 0.00 | 0.00 | 84 | 1013.3 |
| 20260502103055 | 50 | 0 | 0.0 | 1.7 | 0.00 | 0.00 | 0.00 | 84 | 1013.3 |
| 20260502102555 | 51 | 238 | 0.0 | 1.7 | 0.00 | 0.00 | 0.00 | 83 | 1013.4 |
| 20260502102055 | 51 | 238 | 0.0 | 1.7 | 0.00 | 0.00 | 0.00 | 84 | 1013.3 |
| 20260502101602 | 51 | 238 | 0.9 | 1.7 | 0.00 | 0.00 | 0.00 | 85 | 1013.5 |
| 20260502101057 | 51 | 238 | 0.0 | 1.7 | 0.00 | 0.00 | 0.00 | 85 | 1013.5 |
| 20260502100555 | 51 | 211 | 0.0 | 1.7 | 0.00 | 0.00 | 0.00 | 84 | 1013.4 |
| 20260502091056 | 50 | 209 | 0.0 | 1.7 | 0.00 | 0.00 | 0.00 | 90 | 1012.9 |
| 20260502090556 | 50 | 0 | 0.0 | 1.7 | 0.00 | 0.00 | 0.00 | 90 | 1012.9 |
| 20260502071056 | 49 | 0 | 0.0 | 0.9 | 0.00 | 0.00 | 0.00 | 91 | 1012.0 |
| 20260502070557 | 49 | 0 | 0.0 | 1.7 | 0.00 | 0.00 | 0.00 | 90 | 1012.0 |
| 20260502070101 | 49 | 0 | 0.0 | 1.7 | 0.00 | 0.00 | 0.00 | 90 | 1012.0 |
| 20260502065556 | 49 | 135 | 0.0 | 1.7 | 0.00 | 0.00 | 0.00 | 90 | 1012.2 |
| 20260502065056 | 49 | 135 | 0.0 | 1.7 | 0.00 | 0.00 | 0.00 | 90 | 1012.3 |
| 20260502064557 | 49 | 0 | 0.0 | 1.7 | 0.00 | 0.00 | 0.00 | 90 | 1012.2 |
| 20260502064057 | 49 | 0 | 0.0 | 2.6 | 0.00 | 0.00 | 0.00 | 90 | 1012.4 |
| 20260502063559 | 49 | 135 | 0.0 | 2.6 | 0.00 | 0.00 | 0.00 | 91 | 1012.5 |
| 20260502063058 | 49 | 150 | 0.9 | 2.6 | 0.00 | 0.00 | 0.00 | 91 | 1012.5 |
| 20260502062555 | 49 | 338 | 0.0 | 1.7 | 0.00 | 0.00 | 0.00 | 91 | 1012.7 |
| 20260502062055 | 49 | 336 | 0.0 | 0.9 | 0.00 | 0.00 | 0.00 | 91 | 1012.6 |
| 20260502061553 | 49 | 0 | 0.0 | 0.0 | 0.00 | 0.00 | 0.00 | 91 | 1012.5 |
| 20260502061054 | 49 | 0 | 0.0 | 1.7 | 0.00 | 0.00 | 0.00 | 91 | 1012.5 |
| 20260502060554 | 49 | 0 | 0.0 | 1.7 | 0.00 | 0.00 | 0.00 | 91 | 1012.4 |
| 20260502060100 | 49 | 336 | 0.9 | 0.9 | 0.00 | 0.00 | 0.00 | 91 | 1012.4 |
| 20260502055558 | 49 | 0 | 0.0 | 0.0 | 0.00 | 0.00 | 0.00 | 91 | 1012.1 |
| 20260502055054 | 49 | 0 | 0.0 | 0.0 | 0.00 | 0.00 | 0.00 | 91 | 1012.1 |
| 20260502054557 | 49 | 0 | 0.0 | 0.0 | 0.00 | 0.00 | 0.00 | 90 | 1012.1 |
| 20260502054054 | 49 | 0 | 0.0 | 0.0 | 0.00 | 0.00 | 0.00 | 90 | 1012.2 |
| 20260502053555 | 49 | 0 | 0.0 | 0.0 | 0.00 | 0.00 | 0.00 | 90 | 1012.2 |
| 20260502053053 | 49 | 0 | 0.0 | 0.0 | 0.00 | 0.00 | 0.00 | 90 | 1012.3 |
| 20260502052557 | 49 | 0 | 0.0 | 0.0 | 0.00 | 0.00 | 0.00 | 90 | 1012.3 |
| 20260502052055 | 49 | 0 | 0.0 | 1.7 | 0.00 | 0.00 | 0.00 | 90 | 1012.4 |
| 20260502051556 | 49 | 0 | 0.0 | 1.7 | 0.00 | 0.00 | 0.00 | 90 | 1012.5 |
| 20260502051054 | 49 | 192 | 0.0 | 0.9 | 0.00 | 0.00 | 0.00 | 90 | 1012.5 |
| 20260502050557 | 49 | 0 | 0.0 | 1.7 | 0.00 | 0.00 | 0.00 | 90 | 1012.4 |
| 20260502050054 | 49 | 0 | 0.0 | 1.7 | 0.00 | 0.00 | 0.00 | 90 | 1012.5 |
| 20260502045559 | 49 | 0 | 0.0 | 1.7 | 0.00 | 0.00 | 0.00 | 90 | 1012.6 |
| 20260502045055 | 49 | 0 | 0.0 | 1.7 | 0.00 | 0.00 | 0.00 | 90 | 1012.7 |
| 20260502044558 | 49 | 0 | 0.0 | 1.7 | 0.00 | 0.00 | 0.00 | 90 | 1012.8 |
| 20260502044056 | 49 | 192 | 0.0 | 0.0 | 0.00 | 0.00 | 0.00 | 89 | 1012.7 |
| 20260502043555 | 49 | 0 | 0.0 | 0.0 | 0.00 | 0.00 | 0.00 | 89 | 1012.8 |
| 20260502043102 | 49 | 0 | 0.0 | 0.0 | 0.00 | 0.00 | 0.00 | 89 | 1012.7 |
| 20260502042555 | 49 | 0 | 0.0 | 0.0 | 0.00 | 0.00 | 0.00 | 89 | 1012.7 |
| 20260502042054 | 49 | 0 | 0.0 | 1.7 | 0.00 | 0.00 | 0.00 | 89 | 1012.7 |
| 20260502041553 | 49 | 0 | 0.0 | 1.7 | 0.00 | 0.00 | 0.00 | 88 | 1012.8 |
| 20260502041055 | 50 | 192 | 0.0 | 1.7 | 0.00 | 0.00 | 0.00 | 88 | 1012.7 |
| 20260502040558 | 50 | 192 | 0.0 | 1.7 | 0.00 | 0.00 | 0.00 | 88 | 1012.8 |
| 20260502040054 | 49 | 151 | 0.0 | 0.0 | 0.00 | 0.00 | 0.00 | 88 | 1012.9 |
| 20260502035555 | 50 | 0 | 0.0 | 1.7 | 0.00 | 0.00 | 0.00 | 87 | 1012.9 |
| 20260502035055 | 50 | 0 | 0.0 | 1.7 | 0.00 | 0.00 | 0.00 | 87 | 1012.8 |
| 20260502034552 | 50 | 0 | 0.0 | 1.7 | 0.00 | 0.00 | 0.00 | 86 | 1013.0 |
| 20260502034055 | 50 | 151 | 0.0 | 1.7 | 0.00 | 0.00 | 0.00 | 86 | 1013.0 |
| 20260502033554 | 50 | 0 | 0.0 | 1.7 | 0.00 | 0.00 | 0.00 | 86 | 1013.0 |
| 20260502033052 | 50 | 176 | 0.0 | 1.7 | 0.00 | 0.00 | 0.00 | 85 | 1013.0 |
| 20260502032554 | 50 | 144 | 0.0 | 1.7 | 0.00 | 0.00 | 0.00 | 85 | 1013.0 |
| 20260502032054 | 50 | 165 | 0.0 | 1.7 | 0.00 | 0.00 | 0.00 | 85 | 1012.9 |
| 20260502031559 | 51 | 0 | 0.0 | 1.7 | 0.00 | 0.00 | 0.00 | 84 | 1012.9 |
| 20260502031055 | 51 | 240 | 0.0 | 1.7 | 0.00 | 0.00 | 0.00 | 84 | 1013.0 |
| 20260502030554 | 51 | 230 | 0.0 | 2.6 | 0.00 | 0.00 | 0.00 | 84 | 1013.0 |
| 20260502030054 | 51 | 199 | 0.0 | 2.6 | 0.00 | 0.00 | 0.00 | 84 | 1013.0 |
| 20260502025554 | 51 | 223 | 0.9 | 2.6 | 0.00 | 0.00 | 0.00 | 84 | 1013.1 |
| 20260502025055 | 51 | 247 | 0.0 | 1.7 | 0.00 | 0.00 | 0.00 | 84 | 1013.0 |
| 20260502024554 | 51 | 0 | 0.0 | 1.7 | 0.00 | 0.00 | 0.00 | 84 | 1013.0 |
| 20260502024055 | 51 | 216 | 0.9 | 1.7 | 0.00 | 0.00 | 0.00 | 84 | 1012.9 |
| 20260502023555 | 51 | 275 | 0.9 | 1.7 | 0.00 | 0.00 | 0.00 | 83 | 1013.1 |
| 20260502023105 | 51 | 257 | 0.0 | 1.7 | 0.00 | 0.00 | 0.00 | 83 | 1013.0 |
| 20260502022554 | 51 | 305 | 0.0 | 1.7 | 0.00 | 0.00 | 0.00 | 83 | 1013.0 |
| 20260502022056 | 51 | 0 | 0.0 | 1.7 | 0.00 | 0.00 | 0.00 | 83 | 1013.0 |
| 20260502021556 | 51 | 0 | 0.0 | 1.7 | 0.00 | 0.00 | 0.00 | 83 | 1013.0 |
| 20260502021054 | 51 | 0 | 0.9 | 1.7 | 0.00 | 0.00 | 0.00 | 83 | 1013.1 |
| 20260502020554 | 51 | 0 | 0.0 | 1.7 | 0.00 | 0.00 | 0.00 | 82 | 1013.1 |
| 20260502020055 | 51 | 0 | 0.0 | 1.7 | 0.00 | 0.00 | 0.00 | 82 | 1013.1 |
| 20260502015555 | 52 | 0 | 0.0 | 1.7 | 0.00 | 0.00 | 0.00 | 82 | 1013.1 |
| 20260502015055 | 52 | 211 | 0.0 | 1.7 | 0.00 | 0.00 | 0.00 | 81 | 1013.1 |
| 20260502014600 | 52 | 0 | 0.0 | 1.7 | 0.00 | 0.00 | 0.00 | 81 | 1013.2 |
| 20260502014054 | 52 | 200 | 0.0 | 1.7 | 0.00 | 0.00 | 0.00 | 81 | 1013.0 |
| 20260502013554 | 52 | 80 | 0.0 | 1.7 | 0.00 | 0.00 | 0.00 | 81 | 1013.0 |
| 20260502013056 | 52 | 242 | 0.0 | 1.7 | 0.00 | 0.00 | 0.00 | 81 | 1012.9 |
| 20260502012554 | 52 | 205 | 0.0 | 2.6 | 0.00 | 0.00 | 0.00 | 80 | 1012.9 |
| 20260502012054 | 52 | 0 | 0.0 | 2.6 | 0.00 | 0.00 | 0.00 | 80 | 1012.8 |
| 20260502011553 | 52 | 167 | 0.0 | 1.7 | 0.00 | 0.00 | 0.00 | 80 | 1012.9 |
| 20260502011054 | 52 | 299 | 0.0 | 1.7 | 0.00 | 0.00 | 0.00 | 80 | 1012.9 |
| 20260502010554 | 52 | 0 | 0.0 | 1.7 | 0.00 | 0.00 | 0.00 | 80 | 1012.8 |
| 20260502010100 | 52 | 42 | 0.0 | 1.7 | 0.00 | 0.00 | 0.00 | 80 | 1012.7 |
| 20260502005555 | 52 | 155 | 0.0 | 1.7 | 0.00 | 0.00 | 0.00 | 80 | 1012.5 |
| 20260502005055 | 52 | 155 | 0.0 | 1.7 | 0.00 | 0.00 | 0.00 | 79 | 1012.5 |
| 20260502004603 | 53 | 0 | 0.0 | 2.6 | 0.00 | 0.00 | 0.00 | 79 | 1012.5 |
| 20260502004058 | 53 | 158 | 0.0 | 2.6 | 0.00 | 0.00 | 0.00 | 79 | 1012.6 |
| 20260502003556 | 53 | 240 | 0.0 | 1.7 | 0.00 | 0.00 | 0.00 | 78 | 1012.5 |
| 20260502003054 | 53 | 157 | 0.0 | 1.7 | 0.00 | 0.00 | 0.00 | 77 | 1012.4 |
| 20260502002554 | 53 | 112 | 0.0 | 1.7 | 0.00 | 0.00 | 0.00 | 77 | 1012.3 |
| 20260502002058 | 54 | 0 | 0.0 | 3.5 | 0.00 | 0.00 | 0.00 | 76 | 1012.2 |
| 20260502001552 | 54 | 0 | 0.0 | 3.5 | 0.00 | 0.00 | 0.00 | 76 | 1012.1 |
| 20260502001057 | 54 | 192 | 0.0 | 1.7 | 0.00 | 0.00 | 0.00 | 76 | 1012.0 |
| 20260502000554 | 54 | 0 | 0.0 | 1.7 | 0.00 | 0.00 | 0.00 | 75 | 1012.1 |
| 20260502000105 | 55 | 160 | 0.0 | 1.7 | 0.00 | 0.00 | 0.00 | 74 | 1012.0 |
| 20260501235553 | 55 | 74 | 0.0 | 3.5 | 0.00 | 0.00 | 0.00 | 73 | 1012.0 |
| 20260501235054 | 56 | 15 | 0.9 | 5.2 | 0.00 | 0.00 | 0.00 | 72 | 1012.0 |
| 20260501234556 | 56 | 126 | 0.9 | 5.2 | 0.00 | 0.00 | 0.00 | 71 | 1012.0 |
| 20260501234054 | 56 | 278 | 0.9 | 3.5 | 0.00 | 0.00 | 0.00 | 70 | 1012.0 |
| 20260501233552 | 56 | 137 | 0.9 | 3.5 | 0.00 | 0.00 | 0.00 | 70 | 1012.0 |
| 20260501233103 | 57 | 247 | 0.0 | 1.7 | 0.00 | 0.00 | 0.00 | 69 | 1012.0 |
| 20260501232555 | 57 | 294 | 0.9 | 4.3 | 0.00 | 0.00 | 0.00 | 68 | 1012.0 |
| 20260501232054 | 57 | 182 | 0.9 | 4.3 | 0.00 | 0.00 | 0.00 | 67 | 1011.9 |
| 20260501231600 | 58 | 30 | 0.9 | 2.6 | 0.00 | 0.00 | 0.00 | 66 | 1011.9 |
| 20260501231051 | 58 | 214 | 0.9 | 5.2 | 0.00 | 0.00 | 0.00 | 65 | 1011.8 |
| 20260501230551 | 58 | 227 | 0.9 | 5.2 | 0.00 | 0.00 | 0.00 | 64 | 1011.9 |
| 20260501230107 | 59 | 218 | 0.9 | 7.0 | 0.00 | 0.00 | 0.00 | 64 | 1012.0 |
| 20260501225554 | 59 | 161 | 0.9 | 7.0 | 0.00 | 0.00 | 0.00 | 63 | 1011.9 |
| 20260501225055 | 59 | 195 | 0.9 | 6.1 | 0.00 | 0.00 | 0.00 | 62 | 1011.9 |
| 20260501224555 | 60 | 127 | 2.6 | 6.1 | 0.00 | 0.00 | 0.00 | 62 | 1011.8 |
| 20260501224052 | 60 | 82 | 2.6 | 6.1 | 0.00 | 0.00 | 0.00 | 60 | 1012.0 |
| 20260501223553 | 60 | 207 | 1.7 | 5.2 | 0.00 | 0.00 | 0.00 | 61 | 1012.0 |
| 20260501223058 | 61 | 183 | 1.7 | 5.2 | 0.00 | 0.00 | 0.00 | 60 | 1012.0 |
| 20260501222555 | 61 | 194 | 1.7 | 6.1 | 0.00 | 0.00 | 0.00 | 60 | 1012.0 |
| 20260501222052 | 61 | 200 | 1.7 | 6.1 | 0.00 | 0.00 | 0.00 | 61 | 1012.0 |
| 20260501221601 | 61 | 209 | 1.7 | 7.0 | 0.00 | 0.00 | 0.00 | 61 | 1012.0 |
| 20260501221054 | 62 | 132 | 0.9 | 7.8 | 0.00 | 0.00 | 0.00 | 60 | 1012.0 |
| 20260501220551 | 62 | 203 | 1.7 | 7.8 | 0.00 | 0.00 | 0.00 | 61 | 1012.0 |
| 20260501220059 | 62 | 334 | 1.7 | 7.8 | 0.00 | 0.00 | 0.00 | 62 | 1012.0 |
| 20260501215552 | 62 | 244 | 1.7 | 7.8 | 0.00 | 0.00 | 0.00 | 61 | 1012.0 |
| 20260501215055 | 62 | 86 | 2.6 | 7.0 | 0.00 | 0.00 | 0.00 | 60 | 1011.9 |
| 20260501214557 | 63 | 150 | 2.6 | 7.0 | 0.00 | 0.00 | 0.00 | 60 | 1012.1 |
| 20260501214051 | 63 | 254 | 1.7 | 6.1 | 0.00 | 0.00 | 0.00 | 57 | 1012.1 |
| 20260501213554 | 63 | 253 | 2.6 | 6.1 | 0.00 | 0.00 | 0.00 | 57 | 1012.1 |
| 20260501213054 | 63 | 138 | 2.6 | 7.0 | 0.00 | 0.00 | 0.00 | 55 | 1012.2 |
| 20260501212551 | 63 | 190 | 1.7 | 7.0 | 0.00 | 0.00 | 0.00 | 54 | 1012.1 |
| 20260501212055 | 63 | 240 | 2.6 | 7.0 | 0.00 | 0.00 | 0.00 | 53 | 1012.1 |
| 20260501211559 | 64 | 225 | 1.7 | 5.2 | 0.00 | 0.00 | 0.00 | 53 | 1012.2 |
| 20260501211056 | 64 | 173 | 1.7 | 5.2 | 0.00 | 0.00 | 0.00 | 52 | 1012.3 |
| 20260501210551 | 64 | 224 | 2.6 | 5.2 | 0.00 | 0.00 | 0.00 | 50 | 1012.4 |
| 20260501210056 | 64 | 234 | 0.9 | 7.0 | 0.00 | 0.00 | 0.00 | 53 | 1012.4 |
| 20260501205557 | 64 | 157 | 0.9 | 7.0 | 0.00 | 0.00 | 0.00 | 53 | 1012.5 |
| 20260501205056 | 65 | 160 | 1.7 | 6.1 | 0.00 | 0.00 | 0.00 | 51 | 1012.4 |
| 20260501204605 | 65 | 267 | 0.9 | 7.0 | 0.00 | 0.00 | 0.00 | 53 | 1012.4 |
| 20260501204056 | 64 | 78 | 3.5 | 7.0 | 0.00 | 0.00 | 0.00 | 51 | 1012.5 |
| 20260501203556 | 65 | 149 | 0.9 | 7.8 | 0.00 | 0.00 | 0.00 | 53 | 1012.5 |
| 20260501203054 | 65 | 236 | 0.9 | 7.8 | 0.00 | 0.00 | 0.00 | 50 | 1012.4 |
| 20260501202559 | 65 | 296 | 2.6 | 7.8 | 0.00 | 0.00 | 0.00 | 52 | 1012.4 |
| 20260501202056 | 65 | 198 | 1.7 | 8.7 | 0.00 | 0.00 | 0.00 | 48 | 1012.4 |
| 20260501201611 | 65 | 206 | 2.6 | 7.0 | 0.00 | 0.00 | 0.00 | 49 | 1012.5 |
| 20260501201057 | 65 | 144 | 2.6 | 5.2 | 0.00 | 0.00 | 0.00 | 48 | 1012.5 |
| 20260501200557 | 64 | 190 | 1.7 | 6.1 | 0.00 | 0.00 | 0.00 | 50 | 1012.6 |
| 20260501200057 | 64 | 250 | 0.9 | 7.8 | 0.00 | 0.00 | 0.00 | 50 | 1012.7 |
| 20260501195556 | 64 | 84 | 2.6 | 7.8 | 0.00 | 0.00 | 0.00 | 47 | 1012.7 |